Idaho Cnty AP, Grangeville, I, ID

11:09 PM PDT on June 22, 2017 (GMT -0700)
Idaho Cnty AP, Grangeville, I

Weather History for KGIC - April, 2014

Change the Weather History Date:

Wednesday, April 2, 2014

  Actual Average (KP69) Record (KP69)
Temperature  
Mean Temperature 42 °F -  
Max Temperature 50 °F 54 °F 78 °F (2016)
Min Temperature 34 °F 33 °F 27 °F (1999)
Degree Days  
Heating Degree Days 22    
Moisture  
Dew Point 30 °F    
Average Humidity 64    
Maximum Humidity 80    
Minimum Humidity 37    
Precipitation  
Precipitation 0.03 in - - ()
Sea Level Pressure  
Sea Level Pressure 29.88 in    
Wind  
Wind Speed 6 mph (SE)    
Max Wind Speed 17 mph    
Max Gust Speed 22 mph    
Visibility 10 miles    
Events      
Averages and records for this station are not official NWS values.
T = Trace of Precipitation, MM = Missing Value Source: NWS Daily Summary

Daily Weather History Graph

Daily Weather History Graph

Search for Another Location

Airport or City:

Trip Planner

Search our weather history database for the weather conditions in past years. The results will help you decide how hot, cold, wet, or windy it might be!

Date:

Astronomy

Apr. 02, 2014 Rise Set
Actual Time 6:22 AM PDT 7:14 PM PDT
Civil Twilight 5:52 AM PDT 7:44 PM PDT
Nautical Twilight 5:16 AM PDT 8:20 PM PDT
Astronomical Twilight 4:38 AM PDT 8:58 PM PDT
Moon 8:01 AM PDT (4/2) 10:52 PM PDT (4/2)
Length of Visible Light 13h 52m
Length of Day
12h 52m
Waxing Crescent, 11% of the Moon is Illuminated
Apr 2
Waxing Crescent
Apr 7
First Quarter
Apr 15
Full
Apr 22
Last Quarter
Apr 28
New

Hourly Weather History & Observations

Time (PDT) Temp. Windchill Dew Point Humidity Pressure Visibility Wind Dir Wind Speed Gust Speed Precip Events Conditions
12:15 AM 40.8 °F - 32.7 °F 73% 29.75 in 7.0 mi Calm Calm - N/A   Overcast
12:35 AM 39.7 °F - 33.3 °F 78% 29.76 in 7.0 mi Calm Calm - N/A   Overcast
12:55 AM 39.9 °F 36.7 °F 33.6 °F 78% 29.76 in 5.0 mi SE 4.6 mph - N/A   Overcast
1:15 AM 39.9 °F 35.8 °F 33.1 °F 77% 29.76 in 7.0 mi SE 5.8 mph - N/A   Overcast
1:35 AM 39.9 °F 32.9 °F 33.1 °F 77% 29.76 in 10.0 mi SE 11.5 mph - N/A   Overcast
1:55 AM 39.4 °F 32.3 °F 33.6 °F 80% 29.76 in 7.0 mi SE 11.5 mph - N/A   Overcast
2:15 AM 39.6 °F 32.5 °F 33.1 °F 78% 29.77 in 10.0 mi SE 11.5 mph - N/A   Overcast
2:35 AM 39.6 °F 32.5 °F 32.7 °F 76% 29.76 in 10.0 mi SE 11.5 mph - N/A   Overcast
2:55 AM 39.4 °F 34.5 °F 32.9 °F 78% 29.77 in 10.0 mi ESE 6.9 mph - N/A   Overcast
3:15 AM 39.4 °F 36.1 °F 32.5 °F 76% 29.77 in 10.0 mi ESE 4.6 mph - N/A   Overcast
3:35 AM 39.4 °F 35.2 °F 32.0 °F 75% 29.77 in 10.0 mi East 5.8 mph - N/A   Overcast
3:55 AM 39.4 °F 37.2 °F 32.0 °F 75% 29.77 in 10.0 mi ESE 3.5 mph - N/A   Overcast
4:15 AM 39.2 °F 35.9 °F 31.8 °F 75% 29.78 in 10.0 mi ESE 4.6 mph - N/A   Overcast
5:35 AM 38.5 °F 33.4 °F 30.6 °F 73% 29.80 in 10.0 mi SE 6.9 mph - N/A   Overcast
5:55 AM 38.3 °F 34.8 °F 30.7 °F 74% 29.81 in 10.0 mi East 4.6 mph - N/A   Overcast
6:15 AM 37.6 °F 34.0 °F 31.1 °F 77% 29.81 in 10.0 mi SE 4.6 mph - N/A   Overcast
6:35 AM 37.0 °F - 30.9 °F 79% 29.82 in 10.0 mi Calm Calm - N/A   Overcast
6:55 AM 36.7 °F 32.0 °F 30.6 °F 78% 29.82 in 10.0 mi East 5.8 mph - N/A   Overcast
7:15 AM 37.4 °F 33.8 °F 31.3 °F 79% 29.83 in 10.0 mi ESE 4.6 mph - N/A   Overcast
7:35 AM 37.8 °F 34.2 °F 31.8 °F 79% 29.83 in 10.0 mi SE 4.6 mph - N/A   Overcast
7:55 AM 39.0 °F 36.8 °F 31.8 °F 75% 29.84 in 10.0 mi ESE 3.5 mph - N/A   Overcast
8:15 AM 40.1 °F 36.9 °F 31.5 °F 71% 29.84 in 10.0 mi East 4.6 mph - N/A   Overcast
8:35 AM 41.0 °F 37.1 °F 31.1 °F 68% 29.84 in 10.0 mi East 5.8 mph - N/A   Overcast
8:55 AM 42.1 °F 39.2 °F 31.3 °F 66% 29.84 in 10.0 mi East 4.6 mph - N/A   Overcast
9:15 AM 42.4 °F 39.6 °F 31.1 °F 64% 29.86 in 10.0 mi East 4.6 mph - N/A   Overcast
9:35 AM 42.6 °F 38.4 °F 32.2 °F 67% 29.86 in 10.0 mi NE 6.9 mph - N/A   Overcast
9:55 AM 42.6 °F 38.4 °F 32.4 °F 67% 29.87 in 10.0 mi NE 6.9 mph - N/A   Mostly Cloudy
10:15 AM 43.3 °F 39.9 °F 32.9 °F 67% 29.87 in 10.0 mi ENE 5.8 mph - N/A   Scattered Clouds
10:55 AM 44.4 °F 42.0 °F 34.0 °F 67% 29.88 in 10.0 mi ESE 4.6 mph - N/A   Clear
11:15 AM 44.8 °F 43.3 °F 33.1 °F 64% 29.89 in 10.0 mi NE 3.5 mph - N/A   Mostly Cloudy
11:35 AM 44.6 °F - 32.0 °F 61% 29.89 in 10.0 mi Calm Calm - N/A   Overcast
11:55 AM 44.6 °F 42.2 °F 32.2 °F 62% 29.89 in 10.0 mi SW 4.6 mph - N/A   Overcast
12:15 PM 43.7 °F 42.1 °F 32.0 °F 63% 29.89 in 10.0 mi WNW 3.5 mph - 0.01 in   Overcast
12:35 PM 43.2 °F 38.4 °F 32.4 °F 66% 29.89 in 10.0 mi SSW 8.1 mph 16.1 mph 0.03 in   Overcast
12:55 PM 45.0 °F 41.8 °F 33.1 °F 63% 29.89 in 10.0 mi South 5.8 mph - 0.03 in   Mostly Cloudy
1:15 PM 45.7 °F 44.4 °F 31.8 °F 58% 29.89 in 10.0 mi South 3.5 mph - N/A   Overcast
1:35 PM 45.5 °F 42.5 °F 31.1 °F 57% 29.89 in 10.0 mi SW 5.8 mph - N/A   Overcast
1:55 PM 46.4 °F 45.2 °F 31.5 °F 56% 29.89 in 10.0 mi ENE 3.5 mph - N/A   Overcast
2:15 PM 47.5 °F - 30.0 °F 51% 29.89 in 10.0 mi East 8.1 mph - N/A   Overcast
2:35 PM 46.9 °F - 28.9 °F 50% 29.89 in 10.0 mi WSW 5.8 mph - N/A   Overcast
2:55 PM 46.6 °F - 28.9 °F 50% 29.89 in 10.0 mi SSE 4.6 mph - N/A   Overcast
3:15 PM 47.7 °F - 27.7 °F 46% 29.89 in 10.0 mi West 6.9 mph - N/A   Overcast
3:35 PM 49.3 °F - 27.1 °F 42% 29.90 in 10.0 mi NNW 17.3 mph - N/A   Overcast
3:55 PM 49.3 °F - 24.3 °F 38% 29.91 in 10.0 mi NNW 9.2 mph 18.4 mph N/A   Mostly Cloudy
4:15 PM 50.2 °F - 25.2 °F 38% 29.91 in 10.0 mi NNW 15.0 mph 20.7 mph N/A   Scattered Clouds
4:35 PM 50.2 °F - 25.2 °F 38% 29.91 in 10.0 mi NNW 15.0 mph 19.6 mph N/A   Clear
4:55 PM 49.8 °F - 24.4 °F 37% 29.92 in 10.0 mi NW 13.8 mph 20.7 mph N/A   Clear
5:15 PM 49.5 °F - 24.6 °F 38% 29.93 in 10.0 mi NNW 15.0 mph 21.9 mph N/A   Clear
5:35 PM 48.7 °F - 23.7 °F 38% 29.93 in 10.0 mi NNW 15.0 mph 20.7 mph N/A   Clear
5:55 PM 48.0 °F - 24.3 °F 39% 29.93 in 10.0 mi NNW 15.0 mph - N/A   Clear
6:35 PM 45.1 °F 40.3 °F 26.6 °F 48% 29.95 in 10.0 mi NNW 9.2 mph - N/A   Clear
6:55 PM 43.9 °F 39.9 °F 27.0 °F 51% 29.96 in 10.0 mi North 6.9 mph - N/A   Clear
7:15 PM 42.3 °F 39.4 °F 27.5 °F 56% 29.97 in 10.0 mi NNW 4.6 mph - N/A   Clear
7:35 PM 40.8 °F 38.8 °F 27.3 °F 59% 29.97 in 10.0 mi SSW 3.5 mph - N/A   Clear
7:55 PM 40.6 °F 38.6 °F 26.8 °F 58% 29.98 in 10.0 mi South 3.5 mph - N/A   Clear
8:15 PM 40.8 °F 38.8 °F 26.6 °F 57% 29.98 in 10.0 mi South 3.5 mph - N/A   Clear
8:35 PM 39.2 °F 35.9 °F 27.0 °F 62% 29.99 in 10.0 mi South 4.6 mph - N/A   Clear
8:55 PM 39.0 °F 34.0 °F 27.0 °F 62% 29.99 in 10.0 mi South 6.9 mph - N/A   Clear
9:15 PM 38.7 °F 35.2 °F 26.8 °F 62% 29.99 in 10.0 mi SSE 4.6 mph - N/A   Scattered Clouds
9:35 PM 37.9 °F 35.5 °F 26.4 °F 63% 29.99 in 10.0 mi South 3.5 mph - N/A   Scattered Clouds
9:55 PM 36.9 °F 34.3 °F 26.2 °F 65% 30.00 in 10.0 mi South 3.5 mph - N/A   Scattered Clouds
10:15 PM 36.0 °F 31.1 °F 26.8 °F 69% 30.00 in 10.0 mi South 5.8 mph - N/A   Mostly Cloudy
10:35 PM 35.4 °F 30.5 °F 27.1 °F 72% 30.00 in 10.0 mi South 5.8 mph - N/A   Mostly Cloudy
10:55 PM 36.5 °F 31.8 °F 26.8 °F 68% 30.00 in 10.0 mi South 5.8 mph - N/A   Mostly Cloudy
11:15 PM 36.5 °F 31.8 °F 26.6 °F 67% 30.00 in 10.0 mi South 5.8 mph - N/A   Scattered Clouds
11:35 PM 36.0 °F 32.1 °F 26.2 °F 68% 30.01 in 10.0 mi South 4.6 mph - N/A   Clear
11:55 PM 34.7 °F 29.6 °F 26.8 °F 73% 30.01 in 10.0 mi SSE 5.8 mph - N/A   Clear